Lewis Run, PA

4:37 AM EST on February 27, 2017 (GMT -0500)
Bradford Regional

Weather History for KBFD - August, 2012

Change the Weather History Date:

Wednesday, August 1, 2012

  Actual Average Record
Temperature  
Mean Temperature 69 °F 65 °F  
Max Temperature 79 °F 77 °F 91 °F (1975)
Min Temperature 59 °F 53 °F 41 °F (1960)
Degree Days  
Heating Degree Days 0 0  
Month to date heating degree days 0  
Since 1 June heating degree days 209  
Since 1 July heating degree days 64  
Cooling Degree Days 4 2  
Month to date cooling degree days 2  
Year to date cooling degree days 126  
Since 1 June cooling degree days 116  
Growing Degree Days 19 (Base 50)    
Moisture  
Dew Point 60 °F    
Average Humidity 81    
Maximum Humidity 94    
Minimum Humidity 48    
Precipitation  
Precipitation 0.00 in 0.14 in 1.82 in (1965)
Month to date precipitation 0.14  
Year to date precipitation 25.98  
Sea Level Pressure  
Sea Level Pressure 29.92 in    
Wind  
Wind Speed 2 mph (WNW)    
Max Wind Speed 9 mph    
Max Gust Speed -    
Visibility 5 miles    
Events Fog    
T = Trace of Precipitation, MM = Missing Value Source: NWS Daily Summary

Daily Weather History Graph

Daily Weather History Graph

Search for Another Location

Airport or City:

Trip Planner

Search our weather history database for the weather conditions in past years. The results will help you decide how hot, cold, wet, or windy it might be!

Date:

Astronomy

Aug. 01, 2012 Rise Set
Actual Time 6:08 AM EDT 8:32 PM EDT
Civil Twilight 5:37 AM EDT 9:03 PM EDT
Nautical Twilight 4:58 AM EDT 9:42 PM EDT
Astronomical Twilight 4:15 AM EDT 10:25 PM EDT
Moon 7:59 PM EDT (8/1) 5:36 AM EDT (8/1)
Length of Visible Light 15h 25m
Length of Day
14h 23m
Full, 100% of the Moon is Illuminated
Aug 1
Full
Aug 1
Full
Aug 9
Last Quarter
Aug 17
New
Aug 24
First Quarter

Hourly Weather History & Observations

Time (EDT) Temp. Dew Point Humidity Pressure Visibility Wind Dir Wind Speed Gust Speed Precip Events Conditions
12:53 AM 60.1 °F 57.0 °F 90% 29.90 in 9.0 mi Calm Calm - N/A   Clear
1:53 AM 60.1 °F 57.0 °F 90% 29.90 in 5.0 mi Calm Calm - N/A   Clear
2:14 AM 61.0 °F 57.9 °F 90% 29.93 in 2.5 mi Calm Calm - N/A   Clear
2:27 AM 59.0 °F 57.0 °F 93% 29.93 in 1.0 mi Calm Calm - N/A   Mist
2:34 AM 59.0 °F 55.9 °F 90% 29.93 in 0.5 mi Calm Calm - N/A Fog Fog
2:53 AM 59.0 °F 55.9 °F 90% 29.90 in 0.2 mi Calm Calm - N/A Fog Fog
3:26 AM 61.0 °F 59.0 °F 93% 29.93 in 0.8 mi Calm Calm - N/A   Overcast
3:39 AM 61.0 °F 59.0 °F 93% 29.93 in 1.0 mi Calm Calm - N/A   Overcast
3:48 AM 62.6 °F 60.8 °F 94% 29.93 in 0.5 mi Calm Calm - N/A Fog Fog
3:53 AM 63.0 °F 60.1 °F 90% 29.89 in 0.2 mi Calm Calm - N/A Fog Fog
4:53 AM 63.0 °F 61.0 °F 93% 29.89 in 0.2 mi Calm Calm - N/A Fog Fog
5:53 AM 63.0 °F 61.0 °F 93% 29.90 in 0.2 mi Calm Calm - N/A Fog Fog
6:39 AM 63.0 °F 61.0 °F 93% 29.94 in 0.2 mi Calm Calm - N/A Fog Fog
6:53 AM 63.0 °F 61.0 °F 93% 29.92 in 0.2 mi West 3.5 mph - N/A Fog Fog
7:00 AM 63.0 °F 61.0 °F 93% 29.94 in 0.2 mi West 3.5 mph - N/A Fog Fog
7:53 AM 64.0 °F 62.1 °F 93% 29.91 in 0.2 mi WNW 4.6 mph - N/A Fog Fog
8:23 AM 64.0 °F 62.1 °F 93% 29.96 in 0.5 mi West 5.8 mph - N/A Fog Fog
8:42 AM 64.0 °F 62.1 °F 93% 29.96 in 1.2 mi West 3.5 mph - N/A   Overcast
8:51 AM 64.4 °F 62.6 °F 94% 29.96 in 3.0 mi WNW 4.6 mph - N/A   Overcast
8:53 AM 64.0 °F 62.1 °F 93% 29.94 in 3.0 mi Calm Calm - N/A   Overcast
9:04 AM 64.0 °F 62.1 °F 93% 29.96 in 5.0 mi NW 4.6 mph - N/A   Overcast
9:17 AM 64.9 °F 62.1 °F 90% 29.96 in 4.0 mi Variable 3.5 mph - N/A   Overcast
9:53 AM 68.0 °F 63.0 °F 84% 29.93 in 7.0 mi SSW 4.6 mph - N/A   Scattered Clouds
10:04 AM 68.0 °F 63.0 °F 84% 29.96 in 7.0 mi West 5.8 mph - N/A   Mostly Cloudy
10:53 AM 73.0 °F 61.0 °F 66% 29.92 in 10.0 mi WNW 8.1 mph - N/A   Partly Cloudy
11:53 AM 73.9 °F 60.1 °F 62% 29.92 in 10.0 mi WNW 8.1 mph - N/A   Mostly Cloudy
12:53 PM 75.0 °F 60.1 °F 60% 29.91 in 10.0 mi NW 8.1 mph - N/A   Mostly Cloudy
1:53 PM 78.1 °F 57.9 °F 50% 29.89 in 10.0 mi NNW 9.2 mph - N/A   Mostly Cloudy
2:53 PM 79.0 °F 57.9 °F 48% 29.88 in 10.0 mi West 6.9 mph - N/A   Scattered Clouds
3:53 PM 78.1 °F 57.9 °F 50% 29.88 in 10.0 mi NNW 9.2 mph - N/A   Mostly Cloudy
4:53 PM 78.1 °F 60.1 °F 54% 29.87 in 10.0 mi NW 9.2 mph - N/A   Partly Cloudy
5:53 PM 79.0 °F 57.9 °F 48% 29.87 in 10.0 mi NW 9.2 mph - N/A   Clear
6:53 PM 77.0 °F 59.0 °F 54% 29.88 in 10.0 mi NNW 8.1 mph - N/A   Scattered Clouds
7:53 PM 73.0 °F 60.1 °F 64% 29.88 in 10.0 mi NW 5.8 mph - N/A   Clear
8:53 PM 68.0 °F 61.0 °F 78% 29.90 in 10.0 mi Calm Calm - N/A   Clear
9:53 PM 64.9 °F 60.1 °F 84% 29.92 in 10.0 mi Calm Calm - N/A   Clear
10:53 PM 64.0 °F 59.0 °F 84% 29.92 in 10.0 mi Calm Calm - N/A   Mostly Cloudy
11:53 PM 63.0 °F 59.0 °F 87% 29.92 in 10.0 mi Calm Calm - N/A   Clear